Location: *
(43.9900°N, 3.4811°E)
Time: 21:33:03
(UTC+00:00)

SPOT 5 - Pass Details

Date: 25 August 2019
Orbit: 624 x 814 km, 98.3° (Epoch: 23 October)

Event Time Altitude Azimuth Distance (km) Brightness Sun altitude
Exits shadow 21:35:03 56° 329° (NNW) 748 3.1 -27.6°
Drops below altitude 10° 21:38:34 10° 344° (NNW) 2,024 6.0 -28.0°
Sets 21:40:48 0° 346° (NNW) 2,952 7.1 -28.2°
